| time (UTC) | temp F | wind direction | speed MPH | gust MPH | rain 1hr in | rain 24hr in | rain mn in | humidity % | barometer mb |
| 20260509141652 | 51 | 145 | 4.0 | 7.0 | 0.00 | 0.00 | 0.00 | 66 | 1022.3 |
| 20260509140035 | 48 | 154 | 5.0 | 8.0 | 0.00 | 0.00 | 0.00 | 70 | 1022.3 |
| 20260509134528 | 44 | 149 | 5.0 | 9.0 | 0.00 | 0.00 | 0.00 | 72 | 1022.3 |
| 20260509133029 | 43 | 138 | 6.0 | 8.0 | 0.00 | 0.00 | 0.00 | 72 | 1022.2 |
| 20260509131535 | 43 | 154 | 6.0 | 10.0 | 0.00 | 0.00 | 0.00 | 73 | 1022.2 |
| 20260509130107 | 43 | 151 | 5.0 | 10.0 | 0.00 | 0.00 | 0.00 | 73 | 1021.9 |
| 20260509124530 | 43 | 159 | 6.0 | 10.0 | 0.00 | 0.00 | 0.00 | 73 | 1021.8 |
| 20260509123033 | 44 | 144 | 6.0 | 9.0 | 0.00 | 0.00 | 0.00 | 73 | 1021.8 |
| 20260509121532 | 45 | 159 | 5.0 | 9.0 | 0.00 | 0.00 | 0.00 | 73 | 1021.9 |
| 20260509120106 | 45 | 163 | 6.0 | 11.0 | 0.00 | 0.00 | 0.00 | 73 | 1021.8 |
| 20260509114532 | 45 | 154 | 6.0 | 10.0 | 0.00 | 0.00 | 0.00 | 73 | 1021.7 |
| 20260509113035 | 46 | 150 | 6.0 | 12.0 | 0.00 | 0.00 | 0.00 | 74 | 1021.8 |
| 20260509110037 | 46 | 137 | 5.0 | 12.0 | 0.00 | 0.00 | 0.00 | 75 | 1021.9 |
| 20260509103036 | 45 | 149 | 6.0 | 10.0 | 0.00 | 0.00 | 0.00 | 77 | 1022.0 |
| 20260509101535 | 45 | 146 | 6.0 | 11.0 | 0.00 | 0.00 | 0.00 | 78 | 1022.1 |
| 20260509100036 | 44 | 155 | 6.0 | 11.0 | 0.00 | 0.00 | 0.00 | 78 | 1022.2 |
| 20260509094534 | 44 | 156 | 5.0 | 10.0 | 0.00 | 0.00 | 0.00 | 79 | 1022.2 |
| 20260509093149 | 44 | 152 | 6.0 | 9.0 | 0.00 | 0.00 | 0.00 | 78 | 1022.3 |
| 20260509090035 | 45 | 142 | 6.0 | 10.0 | 0.00 | 0.00 | 0.00 | 78 | 1022.5 |
| 20260509084650 | 45 | 141 | 3.0 | 8.0 | 0.00 | 0.00 | 0.00 | 78 | 1022.8 |
| 20260509083038 | 45 | 134 | 6.0 | 11.0 | 0.00 | 0.00 | 0.00 | 78 | 1022.9 |
| 20260509081532 | 45 | 138 | 6.0 | 11.0 | 0.00 | 0.00 | 0.00 | 79 | 1023.1 |
| 20260509080035 | 45 | 137 | 4.0 | 9.0 | 0.00 | 0.00 | 0.00 | 79 | 1023.2 |
| 20260509074532 | 44 | 135 | 4.0 | 7.0 | 0.00 | 0.00 | 0.00 | 79 | 1023.4 |
| 20260509073033 | 44 | 150 | 4.0 | 9.0 | 0.00 | 0.00 | 0.00 | 79 | 1023.5 |
| 20260509071531 | 43 | 170 | 4.0 | 8.0 | 0.00 | 0.00 | 0.00 | 78 | 1023.5 |
| 20260509070032 | 44 | 181 | 4.0 | 6.0 | 0.00 | 0.00 | 0.00 | 77 | 1023.5 |
| 20260509064531 | 45 | 181 | 4.0 | 5.0 | 0.00 | 0.00 | 0.00 | 75 | 1023.6 |
| 20260509063031 | 46 | 165 | 2.0 | 4.0 | 0.00 | 0.00 | 0.00 | 73 | 1023.6 |
| 20260509061652 | 49 | 104 | 1.0 | 4.0 | 0.00 | 0.00 | 0.00 | 71 | 1023.6 |
| 20260509061642 | 51 | 72 | 3.0 | 5.0 | 0.00 | 0.00 | 0.00 | 71 | 1023.6 |
| 20260509051530 | 50 | 56 | 3.0 | 7.0 | 0.00 | 0.00 | 0.00 | 71 | 1023.4 |
| 20260509050035 | 50 | 72 | 2.0 | 5.0 | 0.00 | 0.00 | 0.00 | 69 | 1023.3 |
| 20260509044536 | 51 | 15 | 3.0 | 8.0 | 0.00 | 0.00 | 0.00 | 68 | 1023.1 |
| 20260509043036 | 51 | 325 | 4.0 | 7.0 | 0.00 | 0.00 | 0.00 | 66 | 1023.1 |
| 20260509041643 | 52 | 303 | 3.0 | 7.0 | 0.00 | 0.00 | 0.00 | 64 | 1022.9 |
| 20260509040028 | 53 | 281 | 4.0 | 11.0 | 0.00 | 0.00 | 0.00 | 64 | 1022.6 |
| 20260509034530 | 53 | 280 | 6.0 | 15.0 | 0.00 | 0.00 | 0.00 | 62 | 1022.4 |
| 20260509033032 | 54 | 275 | 6.0 | 13.0 | 0.00 | 0.00 | 0.00 | 61 | 1022.2 |
| 20260509031536 | 54 | 272 | 6.0 | 12.0 | 0.00 | 0.00 | 0.00 | 59 | 1022.1 |
| 20260509030029 | 55 | 275 | 6.0 | 16.0 | 0.00 | 0.00 | 0.00 | 57 | 1021.9 |
| 20260509024643 | 56 | 268 | 7.0 | 18.0 | 0.00 | 0.00 | 0.00 | 54 | 1021.8 |
| 20260509023051 | 58 | 262 | 7.0 | 18.0 | 0.00 | 0.00 | 0.00 | 51 | 1021.6 |
| 20260509021532 | 58 | 257 | 7.0 | 18.0 | 0.00 | 0.00 | 0.00 | 48 | 1021.6 |
| 20260509014529 | 61 | 235 | 7.0 | 20.0 | 0.00 | 0.00 | 0.00 | 45 | 1021.5 |
| 20260509013032 | 61 | 236 | 9.0 | 20.0 | 0.00 | 0.00 | 0.00 | 43 | 1021.4 |
| 20260509011531 | 62 | 239 | 9.0 | 22.0 | 0.00 | 0.00 | 0.00 | 41 | 1021.4 |
| 20260509010035 | 64 | 226 | 9.0 | 22.0 | 0.00 | 0.00 | 0.00 | 40 | 1021.4 |
| 20260509004530 | 64 | 236 | 7.0 | 20.0 | 0.00 | 0.00 | 0.00 | 39 | 1021.4 |
| 20260509003032 | 64 | 223 | 8.0 | 19.0 | 0.00 | 0.00 | 0.00 | 38 | 1021.4 |
| 20260509001536 | 65 | 270 | 9.0 | 20.0 | 0.00 | 0.00 | 0.00 | 36 | 1021.1 |
| 20260508234535 | 66 | 265 | 9.0 | 24.0 | 0.00 | 0.00 | 0.00 | 35 | 1020.8 |
| 20260508233036 | 67 | 261 | 6.0 | 16.0 | 0.00 | 0.00 | 0.00 | 34 | 1020.9 |
| 20260508231537 | 67 | 262 | 6.0 | 18.0 | 0.00 | 0.00 | 0.00 | 32 | 1020.8 |
| 20260508230031 | 67 | 263 | 9.0 | 20.0 | 0.00 | 0.00 | 0.00 | 31 | 1020.6 |
| 20260508224643 | 68 | 269 | 7.0 | 21.0 | 0.00 | 0.00 | 0.00 | 29 | 1020.7 |
| 20260508223033 | 69 | 250 | 5.0 | 14.0 | 0.00 | 0.00 | 0.00 | 28 | 1020.6 |
| 20260508220033 | 69 | 255 | 6.0 | 15.0 | 0.00 | 0.00 | 0.00 | 26 | 1020.5 |
| 20260508213033 | 70 | 258 | 6.0 | 22.0 | 0.00 | 0.00 | 0.00 | 25 | 1020.4 |
| 20260508211535 | 70 | 276 | 6.0 | 18.0 | 0.00 | 0.00 | 0.00 | 24 | 1020.3 |
| 20260508204534 | 69 | 272 | 6.0 | 13.0 | 0.00 | 0.00 | 0.00 | 22 | 1020.2 |
| 20260508203037 | 69 | 247 | 7.0 | 24.0 | 0.00 | 0.00 | 0.00 | 23 | 1020.1 |
| 20260508201537 | 67 | 257 | 8.0 | 22.0 | 0.00 | 0.00 | 0.00 | 24 | 1020.0 |
| 20260508191535 | 66 | 227 | 12.0 | 28.0 | 0.00 | 0.00 | 0.00 | 24 | 1020.0 |
| 20260508183032 | 58 | 330 | 5.0 | 10.0 | 0.00 | 0.00 | 0.00 | 54 | 1019.9 |
| 20260508181531 | 54 | 349 | 3.0 | 7.0 | 0.00 | 0.00 | 0.00 | 60 | 1019.9 |
| 20260508174535 | 52 | 326 | 2.0 | 5.0 | 0.00 | 0.00 | 0.00 | 63 | 1020.0 |
| 20260508171531 | 52 | 360 | 2.0 | 4.0 | 0.00 | 0.00 | 0.00 | 64 | 1019.6 |
| 20260508170029 | 52 | 321 | 1.0 | 6.0 | 0.00 | 0.00 | 0.00 | 65 | 1019.6 |
| 20260508164536 | 52 | 334 | 2.0 | 6.0 | 0.00 | 0.00 | 0.00 | 65 | 1019.5 |
| 20260508163035 | 52 | 8 | 5.0 | 8.0 | 0.00 | 0.00 | 0.00 | 65 | 1019.7 |
| 20260508161531 | 53 | 352 | 8.0 | 13.0 | 0.00 | 0.00 | 0.00 | 65 | 1019.6 |
| 20260508160032 | 54 | 2 | 8.0 | 14.0 | 0.00 | 0.00 | 0.00 | 65 | 1019.5 |
| 20260508154608 | 54 | 1 | 9.0 | 16.0 | 0.00 | 0.00 | 0.00 | 65 | 1019.3 |
| 20260508153031 | 56 | 355 | 8.0 | 16.0 | 0.00 | 0.00 | 0.00 | 63 | 1019.1 |
| 20260508150034 | 54 | 347 | 1.0 | 6.0 | 0.00 | 0.00 | 0.00 | 65 | 1019.0 |
| 20260508143031 | 49 | 66 | 0.0 | 4.0 | 0.00 | 0.00 | 0.00 | 68 | 1018.6 |